TimeEST,TemperatureF,Dew PointF,Humidity,Sea Level PressureIn,VisibilityMPH,Wind Direction,Wind SpeedMPH,Gust SpeedMPH,PrecipitationIn,Events,Conditions,WindDirDegrees,DateUTC
12:54 AM,19.0,5.0,54,30.33,10.0,SSW,9.2,-,N/A,,Overcast,200,2013-01-19 05:54:00
1:54 AM,21.9,8.1,55,30.31,10.0,SW,18.4,26.5,N/A,,Overcast,220,2013-01-19 06:54:00
2:54 AM,23.0,9.0,55,30.28,10.0,SW,18.4,27.6,N/A,,Scattered Clouds,220,2013-01-19 07:54:00
3:54 AM,24.1,12.0,60,30.26,10.0,SW,16.1,-,N/A,,Overcast,230,2013-01-19 08:54:00
4:54 AM,25.0,12.0,58,30.22,10.0,SW,18.4,28.8,N/A,,Overcast,230,2013-01-19 09:54:00
5:54 AM,27.0,14.0,58,30.21,10.0,SW,18.4,26.5,N/A,,Overcast,220,2013-01-19 10:54:00
6:54 AM,28.0,15.1,58,30.19,10.0,SW,16.1,26.5,N/A,,Scattered Clouds,220,2013-01-19 11:54:00
7:54 AM,30.0,17.1,59,30.18,10.0,SW,18.4,25.3,N/A,,Overcast,230,2013-01-19 12:54:00
8:54 AM,32.0,19.0,59,30.18,10.0,SW,19.6,33.4,N/A,,Overcast,230,2013-01-19 13:54:00
9:54 AM,34.0,19.9,56,30.16,10.0,SW,23.0,33.4,N/A,,Overcast,230,2013-01-19 14:54:00
10:54 AM,36.0,21.0,55,30.14,10.0,WSW,17.3,27.6,N/A,,Overcast,240,2013-01-19 15:54:00
11:54 AM,37.0,21.0,52,30.08,10.0,SW,23.0,33.4,N/A,,Overcast,230,2013-01-19 16:54:00
12:54 PM,39.0,21.0,49,30.04,10.0,SW,20.7,32.2,N/A,,Mostly Cloudy,230,2013-01-19 17:54:00
1:54 PM,42.1,21.0,43,30.02,10.0,WSW,26.5,42.6,N/A,,Clear,240,2013-01-19 18:54:00
2:54 PM,41.0,21.9,47,30.01,10.0,WSW,19.6,35.7,N/A,,Clear,240,2013-01-19 19:54:00
3:54 PM,41.0,21.9,47,30.01,10.0,WSW,18.4,27.6,N/A,,Clear,240,2013-01-19 20:54:00
4:54 PM,39.0,23.0,53,30.01,10.0,WSW,17.3,-,N/A,,Clear,240,2013-01-19 21:54:00
5:54 PM,39.0,23.0,53,30.01,10.0,SW,13.8,-,N/A,,Clear,230,2013-01-19 22:54:00
6:54 PM,39.9,21.9,49,30.00,10.0,WSW,19.6,27.6,N/A,,Clear,240,2013-01-19 23:54:00
7:54 PM,39.0,21.9,50,29.99,10.0,SSW,6.9,-,N/A,,Clear,210,2013-01-20 00:54:00
8:54 PM,35.1,24.1,64,29.98,10.0,SW,10.4,-,N/A,,Clear,220,2013-01-20 01:54:00
9:54 PM,36.0,28.0,73,29.95,10.0,SW,10.4,-,N/A,,Overcast,220,2013-01-20 02:54:00
10:54 PM,37.0,28.9,73,29.91,10.0,SSW,13.8,-,N/A,,Mostly Cloudy,210,2013-01-20 03:54:00
11:54 PM,36.0,28.0,73,29.87,10.0,SW,13.8,-,N/A,,Partly Cloudy,220,2013-01-20 04:54:00